Flag for U.S.A. Weather past 2 weeks in Springfield, Massachusetts, U.S.A.

Now
53 °F

Clear.


Feels Like: 53 °F
Forecast: 50 / 69 °F
Wind: No wind

Location: Barnes Municipal Airport

Current Time: Sep 16, 2014 at 12:56:27 AM

Latest Report: Sep 15, 2014 at 11:53 PM


Visibility: 10 mi

Pressure: 30.11 "Hg

Humidity: 86%

Dew point: 49 °F

Location of SpringfieldLocation

Historic Weather in Springfield — Graph

°F

Springfield temperature yesterday

Maximum temperature yesterday: 66 °F (at 3:53 PM)
Minimum temperature yesterday: 44 °F (at 3:53 AM)
Average temperature yesterday: 55 °F

Past Weeks' High & Low Weather Summary

 TemperatureHumidityPressure
High93 °F (Sep 6, 1:53 PM)97% (Sep 2, 6:00 AM)30.37 "Hg (Sep 2, 6:00 AM)
Low44 °F (Sep 15, 3:53 AM)36% (Sep 4, 3:53 PM)29.72 "Hg (Sep 2, 11:53 PM)
Average67 °F72%30.08 "Hg
* Reported Aug 31 11:53 PM — Sep 15 11:53 PM, Springfield, Weather by CustomWeather, © 2014

Note: Actual official high and low records may vary slightly from our data, if they occured in-between our weather recording intervals... More about our weather records

Advertising

Springfield weather history for previous 24 hours

 ConditionsComfort  
Time TempWeatherWind HumidityBarometerVisibility
11:53 PM
Sep 15
53 °FClear.No wind86%30.11 "Hg10 mi
10:53 PM51 °FClear.No wind89%30.11 "Hg10 mi
9:53 PM54 °FClear.No wind83%30.11 "Hg10 mi
8:53 PM54 °FClear.No wind83%30.12 "Hg10 mi
7:53 PM55 °FSunny.No wind83%30.12 "Hg10 mi
6:53 PM58 °FSunny.No wind70%30.11 "Hg10 mi
5:53 PM65 °FSunny.3 mph45%30.11 "Hg10 mi
4:53 PM66 °FSunny.5 mph42%30.12 "Hg10 mi
3:53 PM66 °FSunny.No wind39%30.14 "Hg10 mi
2:53 PM65 °FSunny.3 mph40%30.14 "Hg10 mi
1:53 PM64 °FPassing clouds.9 mph43%30.17 "Hg10 mi
12:53 PM64 °FScattered clouds.3 mph43%30.19 "Hg10 mi
11:53 AM62 °FPartly sunny.6 mph46%30.21 "Hg10 mi
10:53 AM61 °FSunny.5 mph52%30.24 "Hg10 mi
9:53 AM56 °FSunny.No wind62%30.24 "Hg10 mi
8:53 AM52 °FSunny.3 mph75%30.25 "Hg10 mi
7:53 AM49 °FSunny.3 mph84%30.26 "Hg10 mi
6:53 AM46 °FOvercast.3 mph89%30.27 "Hg10 mi
5:53 AM46 °FOvercast.No wind89%30.26 "Hg10 mi
4:53 AM45 °FOvercast.No wind90%30.24 "Hg10 mi
3:53 AM44 °FClear.3 mph89%30.23 "Hg10 mi
2:53 AM45 °FClear.6 mph90%30.23 "Hg10 mi
1:53 AM47 °FOvercast.5 mph90%30.24 "Hg10 mi
12:53 AM46 °FPassing clouds.3 mph93%30.23 "Hg10 mi
Weather by CustomWeather, © 2014

See weather overviewHow to use our weather pages